Location: LDNL
(36.4545°S, 141.6685°E)
Time: 23:00:24
(UTC+11:00)

ISS - Pass Details

Date: 13 December 2021
Orbit: 413 x 422 km, 51.6° (Epoch: 22 January)

Event Time Altitude Azimuth Distance (km) Brightness Sun altitude
Rises 23:08:08 0° 282° (WNW) 2,363 0.4 -21.9°
Reaches altitude 10° 23:10:30 10° 267° (W) 1,504 -0.5 -22.2°
Maximum altitude 23:13:18 24° 211° (SSW) 933 -1.2 -22.5°
Drops below altitude 10° 23:16:07 10° 155° (SSE) 1,513 -0.6 -22.8°
Sets 23:18:30 0° 140° (SE) 2,382 0.3 -23.0°
